Reus, Spain

5:44 PM CET en Diciembre 18, 2018 (GMT +0100)
Reus Air Base

Tiempo Historia de LERS - Octubre, 2018

Change the Weather History Date:

Viernes, Octubre 12, 2018

  Actual Average Record
Temperature  
Temperatura media 70 ° F -  
Temperatura máxima 79 ° F 67 ° F 87 ° F (2011)
Temperatura mínima 62 ° F 51 ° F 51 ° F (2004)
Cooling Degree Days 6    
Growing Degree Days 20 (Base 50)    
Moisture  
Punto de rocío 66 ° F    
Average Humidity 87    
Maximum Humidity 100    
Minimum Humidity 59    
Precipitación  
Precipitación 0.00 pul - - ()
Presión al nivel del mar  
Presión al nivel del mar 30.14 pul    
Viento  
Velocidad del viento 3 mph ()    
Velocidad máxima del viento 7 mph    
Max Gust Speed -    
Visibilidad 7.3 Millas    
Eventos      
Averages and records for this station are not official NWS values.
T = Trace of Precipitation, MM = Missing Value Source: Averaged Metar Reports

Daily Weather History Graph

Daily Weather History Graph

Search for Another Location

Airport or City:

Astronomía

Oct. 12, 2018 Salida Puesta
Hora real 8:03 AM CEST 7:19 PM CEST
Crepúsculo civil 7:35 AM CEST 7:47 PM CEST
Crepúsculo náutico 7:03 AM CEST 8:19 PM CEST
Crepúsculo astronómico 6:31 AM CEST 8:50 PM CEST
Luna 11:23 AM CEST (10/12) 9:44 PM CEST (10/12)
Horas de luz 12h 11m
Horas de luz
11h 16m
Creciente, 12% of the Moon is Illuminated
Oct 12
Creciente
Oct 16
Cuarto creciente
Oct 24
Luna llena
Oct 31
Cuarto menguante
Nov 7
Nueva

Hourly Weather History & Observations

Hora (CEST) Temp. Punto de rocío Humedad Presión Visibilidad Wind Dir Velocidad del viento Velocidad de ráfagas Precip Eventos Condiciones
12:00 AM 65 ° F 64 ° F 95% 30.06 pul 6 mi NO 2.3 mph - -  
12:00 AM 66.2 ° F 64.4 ° F 94% 30.06 pul 6.2 mi Sin viento Sin viento - N/A   Parcialmente nublado
12:30 AM 66.2 ° F 64.4 ° F 94% 30.06 pul 5.6 mi Oeste 4.6 mph - N/A   Desconocido
1:00 AM 65 ° F 64 ° F 95% 30.07 pul 4 mi Sin viento Sin viento - -  
1:00 AM 64.4 ° F 62.6 ° F 94% 30.06 pul 5.0 mi Variable 1.2 mph - N/A   Desconocido
1:30 AM 62.6 ° F 62.6 ° F 100% 30.06 pul 5.0 mi Sin viento Sin viento - N/A   Parcialmente nublado
2:00 AM 64 ° F 63 ° F 95% 30.08 pul 3 mi Norte 3.5 mph - -  
2:00 AM 62.6 ° F 62.6 ° F 100% 30.06 pul 3.7 mi Variable 1.2 mph - N/A   Parcialmente nublado
2:30 AM 64.4 ° F 64.4 ° F 100% 30.06 pul 6.2 mi NNE 3.5 mph - N/A   Parcialmente nublado
3:00 AM 64 ° F 63 ° F 94% 30.09 pul 8 mi Norte 5.8 mph - -  
3:00 AM 66.2 ° F 64.4 ° F 94% 30.06 pul 6.2 mi Norte 3.5 mph - N/A   Muy nublado
3:30 AM 66.2 ° F 64.4 ° F 94% 30.06 pul 6.2 mi Norte 4.6 mph - N/A   Nubes dispersas
4:00 AM 64 ° F 63 ° F 94% 30.09 pul 9 mi Norte 6.9 mph - -  
4:00 AM 66.2 ° F 64.4 ° F 94% 30.06 pul 6.2 mi Norte 6.9 mph - N/A   Parcialmente nublado
4:30 AM 64.4 ° F 62.6 ° F 94% 30.06 pul 5.6 mi NE 4.6 mph - N/A   Desconocido
5:00 AM 64 ° F 63 ° F 94% 30.09 pul 7 mi Norte 3.5 mph - -  
5:00 AM 64.4 ° F 62.6 ° F 94% 30.06 pul 6.2 mi Norte 4.6 mph - N/A   Desconocido
5:30 AM 64.4 ° F 62.6 ° F 94% 30.09 pul 6.2 mi Norte 5.8 mph - N/A   Desconocido
6:00 AM 63 ° F 62 ° F 94% 30.09 pul 7 mi Norte 5.8 mph - -  
6:00 AM 62.6 ° F 60.8 ° F 94% 30.09 pul 6.2 mi NNE 4.6 mph - N/A   Desconocido
6:30 AM 62.6 ° F 62.6 ° F 100% 30.09 pul 5.6 mi NNE 5.8 mph - N/A   Desconocido
7:00 AM 63 ° F 62 ° F 93% 30.12 pul 11 mi NNE 3.5 mph - -  
7:00 AM 62.6 ° F 62.6 ° F 100% 30.09 pul 6.2 mi Norte 4.6 mph - N/A   Parcialmente nublado
7:30 AM 62.6 ° F 62.6 ° F 100% 30.12 pul 6.2 mi NNE 4.6 mph - N/A   Nubes dispersas
8:00 AM 64 ° F 63 ° F 94% 30.13 pul 6 mi NNE 4.6 mph - -   Muy nublado
8:00 AM 62.6 ° F 62.6 ° F 100% 30.12 pul 5.6 mi NNE 3.5 mph - N/A   Muy nublado
8:30 AM 64.4 ° F 64.4 ° F 100% 30.12 pul 5.6 mi NNE 5.8 mph - N/A   Muy nublado
9:00 AM 66 ° F 64 ° F 93% 30.16 pul 15 mi Norte 5.8 mph - -  
9:00 AM 66.2 ° F 64.4 ° F 94% 30.15 pul 5.6 mi Norte 3.5 mph - N/A   Muy nublado
9:30 AM 66.2 ° F 64.4 ° F 94% 30.15 pul 6.2 mi NNE 5.8 mph - N/A   Muy nublado
10:00 AM 69 ° F 65 ° F 82% 30.18 pul 14 mi NNE 5.8 mph - -  
10:00 AM 69.8 ° F 64.4 ° F 83% 30.18 pul 6.2 mi NNE 5.8 mph - N/A   Muy nublado
10:30 AM 69.8 ° F 66.2 ° F 88% 30.18 pul 6.2 mi Norte 4.6 mph - N/A   Muy nublado
11:00 AM 73 ° F 66 ° F 72% 30.19 pul 19 mi Norte 2.3 mph - -   Nubes dispersas
11:00 AM 75.2 ° F 66.2 ° F 73% 30.18 pul 6.2 mi Variable 2.3 mph - N/A   Parcialmente nublado
11:30 AM 75.2 ° F 66.2 ° F 73% 30.18 pul 6.2 mi SSE 1.2 mph - N/A   Parcialmente nublado
12:00 PM 76 ° F 67 ° F 68% 30.20 pul 19 mi SO 2.3 mph - -  
12:00 PM 75.2 ° F 66.2 ° F 73% 30.18 pul 6.2 mi Sin viento Sin viento - N/A   Nubes dispersas
12:30 PM 77.0 ° F 68.0 ° F 74% 30.18 pul 6.2 mi SSE 3.5 mph - N/A   Muy nublado
1:00 PM 77 ° F 67 ° F 64% 30.20 pul 12 mi SE 4.6 mph - -  
1:00 PM 78.8 ° F 68.0 ° F 69% 30.18 pul 6.2 mi Variable 2.3 mph - N/A   Nubes dispersas
1:30 PM 78.8 ° F 68.0 ° F 69% 30.18 pul 6.2 mi SE 4.6 mph - N/A   Muy nublado
2:00 PM 78.8 ° F 68.0 ° F 69% 30.18 pul 6.2 mi Sur 4.6 mph - N/A   Nubes dispersas
2:30 PM 78.8 ° F 68.0 ° F 69% 30.18 pul 6.2 mi Variable 2.3 mph - N/A   Nubes dispersas
3:00 PM 79 ° F 67 ° F 59% 30.17 pul 14 mi SSE 5.8 mph - -  
3:00 PM 78.8 ° F 68.0 ° F 69% 30.18 pul 6.2 mi SSE 4.6 mph - N/A   Nubes dispersas
3:30 PM 78.8 ° F 68.0 ° F 69% 30.15 pul 6.2 mi SSE 6.9 mph - N/A   Nubes dispersas
4:00 PM 79 ° F 69 ° F 63% 30.17 pul 19 mi SSE 6.9 mph - -  
4:00 PM 78.8 ° F 68.0 ° F 69% 30.15 pul 6.2 mi SE 4.6 mph - N/A   Parcialmente nublado
4:30 PM 78.8 ° F 68.0 ° F 69% 30.18 pul 6.2 mi SSE 5.8 mph - N/A   Parcialmente nublado
5:00 PM 78 ° F 69 ° F 66% 30.17 pul 16 mi SSE 6.9 mph - -   Nubes dispersas
5:30 PM 77.0 ° F 69.8 ° F 78% 30.15 pul 6.2 mi SSE 4.6 mph - N/A   Parcialmente nublado
6:00 PM 76 ° F 69 ° F 72% 30.17 pul 15 mi SSE 5.8 mph - -  
6:00 PM 75.2 ° F 68.0 ° F 78% 30.15 pul 6.2 mi SE 4.6 mph - N/A   Parcialmente nublado
6:30 PM 75.2 ° F 69.8 ° F 83% 30.15 pul 6.2 mi SE 4.6 mph - N/A   Parcialmente nublado
7:00 PM 73.4 ° F 69.8 ° F 88% 30.15 pul 6.2 mi SSE 3.5 mph - N/A   Parcialmente nublado
7:30 PM 73.4 ° F 69.8 ° F 88% 30.18 pul 6.2 mi Variable 1.2 mph - N/A   Nubes dispersas
8:00 PM 71 ° F 68 ° F 89% 30.18 pul 9 mi SO 3.5 mph - -   Parcialmente nublado
8:00 PM 71.6 ° F 69.8 ° F 94% 30.18 pul 6.2 mi SSO 3.5 mph - N/A   Nubes dispersas
8:30 PM 71.6 ° F 69.8 ° F 94% 30.18 pul 6.2 mi Sin viento Sin viento - N/A   Nubes dispersas
9:00 PM 70 ° F 68 ° F 92% 30.19 pul 6 mi Oeste 2.3 mph - -  
9:00 PM 71.6 ° F 68.0 ° F 88% 30.18 pul 6.2 mi Sin viento Sin viento - N/A   Parcialmente nublado
9:30 PM 69.8 ° F 68.0 ° F 94% 30.18 pul 4.3 mi Sin viento Sin viento - N/A   Parcialmente nublado
10:00 PM 68 ° F 67 ° F 94% 30.19 pul 6 mi NNO 2.3 mph - -  
10:00 PM 68.0 ° F 66.2 ° F 94% 30.18 pul 5.0 mi Sin viento Sin viento - N/A   Parcialmente nublado
10:30 PM 68.0 ° F 68.0 ° F 100% 30.18 pul 4.3 mi Sin viento Sin viento - N/A   Parcialmente nublado
11:00 PM 67 ° F 67 ° F 98% 30.19 pul 4 mi NNO 3.5 mph - -  
11:00 PM 68.0 ° F 66.2 ° F 94% 30.18 pul 4.3 mi Sin viento Sin viento - N/A   Parcialmente nublado
11:30 PM 68.0 ° F 68.0 ° F 100% 30.18 pul 3.7 mi NO 3.5 mph - N/A   Parcialmente nublado